Погода в Кировске

Беларусь     53°16′23″N   29°28′06″E
темп.,
°C
ветер,
м/с
пор.,
м/с
влажн.,
%
обл.,
%
осадки,
мм/ч
давл.,
гПа
погр.,
м
13 июня, вс
вс1300:00+14ююз359179 0.1 100686
03:00+13ю3694100 0.1 1004114
06:00+14ю3894100 0.1 1003227
09:00+16з1288100 0.3 1003463
12:00+17з5688100 0.8 1003706
15:00+15сз6887100 0.9 1004661
18:00+12сз71394100 0.6 1006555
21:00+12сз61292100 0.8 1007556
14 июня, пн
пн1400:00+12зсз51096100 0.6 1008512
03:00+12зсз4898100 1.3 1008418
06:00+13з1298100 0.0 1010123
09:00+14ююв2291100 0.0 1012389
12:00+16юв3381100 0.1 1015647
15:00+18юв127294 0.1 1015724
18:00+20сз116723 0.0 1015890
21:00+16ссз22820 0.0 101621
15 июня, вт
вт1500:00+13с22910 0.0 101713
03:00+13ссз12913 0.0 101610
06:00+13сз22910 0.0 101736
09:00+18сз22750 0.0 1016423
12:00+22зсз33639 0.0 10151236
15:00+22зсз446553 0.0 10141042
18:00+21сз4568100 0.1 1014852
21:00+17сз3781100 0.1 1014164
16 июня, ср
ср1600:00+14сз359099 0.0 101492
03:00+14ссз379679 0.0 1015156
06:00+15ссз389598 0.0 1015307
09:00+17с568288 0.0 1016726
12:00+20с456421 0.0 10171157
15:00+22с564929 0.0 10171703
18:00+20ссв57560 0.0 1018730
21:00+15с34760 0.0 101965
17 июня, чт
чт1700:00+13ссв411840 0.0 1020197
03:00+11ссв49854 0.0 1021150
06:00+12св410835 0.0 1022199
09:00+18всв58620 0.0 1023427
12:00+22всв57532 0.0 10231493
15:00+22всв56485 0.0 10231638
18:00+21всв56605 0.0 1023956
21:00+16св47800 0.0 1023118